Regional Weather Roundup
Issued by NWS

Home | Current Version | Previous Version | Text Only | Print | Product List | Glossary Off
Versions: 1 2 3 4 5 6 7 8 9 10 11 12 13 14 15 16 17 18 19 20 21 22 23 24 25 26 27 28 29 30 31 32 33 34 35 36 37 38 39 40 41 42 43 44 45 46 47 48 49 50

000
ASUS43 KBIS 290820
RWRND

NORTH DAKOTA REGIONAL WEATHER ROUNDUP
NATIONAL WEATHER SERVICE BISMARCK ND
200 AM CST MON DEC 29 2014

NOTE: "FAIR" INDICATES FEW OR NO CLOUDS BELOW 12,000 FEET WITH NO
SIGNIFICANT WEATHER AND/OR OBSTRUCTIONS TO VISIBILITY.


NDZ001>003-009>011-017-290900-
NORTHWEST NORTH DAKOTA

CITY           SKY/WX    TMP DP  RH WIND       PRES   REMARKS
WILLISTON      PTCLDY    -8 -14  74 N10       30.55R WCI -26
MINOT          CLEAR    -11 -17  75 NW9       30.53R WCI -29
MINOT AFB      PTCLDY   -13 -18  80 NW9       30.54R WCI -32
$$

NDZ018>021-031>035-040>046-290900-
SOUTHWEST NORTH DAKOTA

CITY           SKY/WX    TMP DP  RH WIND       PRES   REMARKS
BISMARCK       CLOUDY     1  -5  75 NE6       30.51R WCI -10
DICKINSON      CLOUDY     2  -2  83 NE13      30.38R WCI -15
GARRISON         N/A     -7 -12  79 N10       30.50R WCI -25
HETTINGER ARPT LGT SNOW   4  -1  80 NE13      30.35S WCI -13
$$

NDZ004>008-012>016-024-026-027-054-290900-
NORTHEAST NORTH DAKOTA

CITY           SKY/WX    TMP DP  RH WIND       PRES   REMARKS
GRAND FORKS    PTCLDY    -9 -14  78 N8        30.58R WCI -25
GRND FRKS AFB  PTCLDY    -9 -14  80 N6        30.58R WCI -23
DEVILS LAKE    MOCLDY    -9 -18  64 N8        30.51S WCI -26
$$

NDZ022-023-025-028>030-036>039-047>053-290900-
SOUTHEAST NORTH DAKOTA

CITY           SKY/WX    TMP DP  RH WIND       PRES   REMARKS
FARGO          CLEAR     -5 -11  75 NW8       30.55R WCI -20
JAMESTOWN      CLEAR     -7 -12  79 N7        30.49R WCI -21
$$




USA.gov is the U.S. government's official web portal to all federal, state and local government web resources and services.